EW8288 Weather Reports


time (UTC)temp
C
wind
direction
speed
KPH
gust
KPH
rain 1hr
cm
rain 24hr
cm
rain mn
cm
humidity
%
barometer
mb
20260503021226 5 46 0.0 0.0 0.00 0.00 0.00 84 1017.6
20260503020225 5 46 0.0 0.0 0.00 0.00 0.00 84 1017.6
20260503015438 5 46 0.0 0.0 0.00 0.00 0.00 83 1017.6
20260503014224 5 46 0.0 0.0 0.00 0.00 0.00 83 1017.6
20260503013225 5 46 0.0 0.0 0.00 0.00 0.00 82 1017.6
20260503012441 6 46 0.0 0.0 0.00 0.00 0.00 82 1017.6
20260503011226 6 46 0.0 0.0 0.00 0.00 0.00 82 1017.9
20260503010225 6 46 0.0 0.0 0.00 0.00 0.00 82 1017.9
20260503005224 6 46 0.0 0.0 0.00 0.00 0.00 81 1017.9
20260503004225 6 46 0.0 0.0 0.00 0.00 0.00 80 1017.9
20260503003227 6 46 0.0 0.0 0.00 0.00 0.00 80 1017.9
20260503002224 6 46 0.0 0.0 0.00 0.00 0.00 80 1017.9
20260503001224 6 46 0.0 0.0 0.00 0.00 0.00 79 1017.9
20260503000223 6 46 0.0 0.0 0.00 0.00 0.00 79 1018.3
20260502235223 7 46 0.0 0.0 0.00 0.00 0.00 79 1018.3
20260502234226 7 46 0.0 0.0 0.00 0.00 0.00 79 1018.3
20260502233226 7 46 0.0 0.0 0.00 0.00 0.00 78 1018.3
20260502232225 7 46 0.0 0.0 0.00 0.00 0.00 78 1018.3
20260502231226 7 46 0.0 0.0 0.00 0.00 0.00 76 1018.6
20260502230234 7 46 0.0 0.0 0.00 0.00 0.00 77 1018.3
20260502225226 7 46 0.0 0.0 0.00 0.00 0.00 76 1018.6
20260502224439 7 46 0.0 0.0 0.00 0.00 0.00 75 1018.6
20260502223226 7 46 0.0 0.0 0.00 0.00 0.00 74 1018.6
20260502222227 8 46 0.0 0.0 0.00 0.00 0.00 74 1018.6
20260502221226 8 46 0.0 0.0 0.00 0.00 0.00 73 1018.6
20260502220224 8 46 0.0 0.0 0.00 0.00 0.00 71 1018.6
20260502215227 8 46 0.0 0.0 0.00 0.00 0.00 70 1018.6
20260502214441 8 46 0.0 0.0 0.00 0.00 0.00 68 1018.6
20260502213440 9 46 0.0 0.0 0.00 0.00 0.00 66 1019.0
20260502212228 10 46 0.0 0.0 0.00 0.00 0.00 65 1018.6
20260502211439 10 46 0.0 0.0 0.00 0.00 0.00 64 1019.0
20260502210226 10 46 0.0 0.0 0.00 0.00 0.00 64 1019.0
20260502205224 10 46 0.0 0.0 0.00 0.00 0.00 65 1019.0
20260502204227 10 46 0.0 0.0 0.00 0.00 0.00 64 1019.0
20260502203224 10 46 0.0 0.0 0.00 0.00 0.00 63 1019.0
20260502202226 10 46 0.0 0.0 0.00 0.00 0.00 61 1019.0
20260502201226 11 46 0.0 0.0 0.00 0.00 0.00 61 1019.3
20260502200227 11 46 0.0 0.0 0.00 0.00 0.00 60 1019.3
20260502195226 11 46 0.0 0.0 0.00 0.00 0.00 60 1019.3
20260502194225 11 46 0.0 0.0 0.00 0.00 0.00 59 1019.3
20260502193226 12 46 0.0 0.0 0.00 0.00 0.00 58 1019.3
20260502192441 12 46 0.0 0.0 0.00 0.00 0.00 58 1019.3
20260502191227 12 46 0.0 0.0 0.00 0.00 0.00 57 1019.3
20260502190225 13 46 0.0 0.0 0.00 0.00 0.00 56 1019.3
20260502185226 13 46 0.0 0.0 0.00 0.00 0.00 56 1019.3
20260502184439 13 46 0.0 0.0 0.00 0.00 0.00 55 1019.0
20260502183226 14 46 0.0 0.0 0.00 0.00 0.00 53 1019.0
20260502182225 15 46 0.0 0.0 0.00 0.00 0.00 51 1019.0
20260502181225 16 46 0.0 0.0 0.00 0.00 0.00 49 1019.0
20260502180440 17 46 0.0 0.0 0.00 0.00 0.00 45 1019.0
20260502170225 22 46 0.0 0.0 0.00 0.00 0.00 28 1019.0
20260502164227 22 46 0.0 0.0 0.00 0.00 0.00 28 1019.3
20260502163227 22 46 0.0 0.0 0.00 0.00 0.00 27 1019.3
20260502162226 23 46 0.0 1.6 0.00 0.00 0.00 27 1019.3
20260502161225 23 46 0.0 0.0 0.00 0.00 0.00 26 1019.6
20260502160226 23 46 0.0 0.0 0.00 0.00 0.00 25 1019.6
20260502152225 23 46 0.0 0.0 0.00 0.00 0.00 26 1020.0
20260502151226 23 19 0.0 1.6 0.00 0.00 0.00 26 1020.3
20260502150225 23 19 0.0 1.6 0.00 0.00 0.00 25 1020.3
20260502130441 23 190 0.0 1.6 0.00 0.00 0.00 27 1021.7
20260502123227 23 24 0.0 3.2 0.00 0.00 0.00 28 1022.0
20260502122226 23 25 0.0 1.6 0.00 0.00 0.00 30 1022.0
20260502121226 23 23 0.0 6.4 0.00 0.00 0.00 28 1022.4
20260502120227 22 24 0.0 0.0 0.00 0.00 0.00 30 1022.4
20260502115226 22 24 0.0 1.6 0.00 0.00 0.00 29 1022.7
20260502114228 22 24 0.0 1.6 0.00 0.00 0.00 29 1022.7
20260502113224 22 25 0.0 0.0 0.00 0.00 0.00 29 1022.7
20260502112226 22 25 0.0 1.6 0.00 0.00 0.00 30 1023.0
20260502111225 22 13 0.0 0.0 0.00 0.00 0.00 31 1023.0
20260502110224 21 41 0.0 1.6 0.00 0.00 0.00 33 1023.4
20260502105225 21 41 0.0 1.6 0.00 0.00 0.00 33 1023.4
20260502104224 21 28 0.0 1.6 0.00 0.00 0.00 34 1023.4
20260502103441 21 26 0.0 4.8 0.00 0.00 0.00 32 1023.4
20260502102224 21 27 0.0 1.6 0.00 0.00 0.00 34 1023.7
20260502101226 21 27 0.0 1.6 0.00 0.00 0.00 33 1023.7
20260502100225 21 26 0.0 0.0 0.00 0.00 0.00 36 1023.7
20260502091225 19 27 0.0 4.8 0.00 0.00 0.00 41 1024.4
20260502090227 18 27 0.0 0.0 0.00 0.00 0.00 43 1024.4
20260502071225 14 28 0.0 0.0 0.00 0.00 0.00 58 1025.1
20260502070226 14 28 0.0 0.0 0.00 0.00 0.00 59 1025.4
20260502065225 13 28 0.0 0.0 0.00 0.00 0.00 58 1025.4
20260502064227 13 28 0.0 0.0 0.00 0.00 0.00 63 1025.4
20260502063223 13 28 0.0 0.0 0.00 0.00 0.00 63 1025.4
20260502062225 12 28 0.0 0.0 0.00 0.00 0.00 64 1025.1
20260502061440 12 28 0.0 0.0 0.00 0.00 0.00 66 1025.4
20260502060441 11 28 0.0 0.0 0.00 0.00 0.00 71 1025.4
20260502055225 11 28 0.0 0.0 0.00 0.00 0.00 74 1025.4
20260502054226 10 28 0.0 0.0 0.00 0.00 0.00 77 1025.4
20260502053225 9 28 0.0 0.0 0.00 0.00 0.00 79 1025.4
20260502052441 8 28 0.0 0.0 0.00 0.00 0.00 82 1025.4
20260502051225 7 28 0.0 0.0 0.00 0.00 0.00 85 1025.4
20260502050227 6 28 0.0 0.0 0.00 0.00 0.00 87 1025.1
20260502045226 6 28 0.0 0.0 0.00 0.00 0.00 88 1025.1
20260502044227 5 28 0.0 0.0 0.00 0.00 0.00 89 1025.1
20260502043228 5 28 0.0 0.0 0.00 0.00 0.00 89 1025.1
20260502042227 4 28 0.0 0.0 0.00 0.00 0.00 88 1025.1
20260502041225 4 28 0.0 0.0 0.00 0.00 0.00 88 1025.1
20260502040224 4 28 0.0 0.0 0.00 0.00 0.00 88 1025.1
20260502035227 4 28 0.0 0.0 0.00 0.00 0.00 88 1025.1
20260502034225 4 28 0.0 0.0 0.00 0.00 0.00 88 1025.1
20260502033226 4 28 0.0 0.0 0.00 0.00 0.00 87 1025.1
20260502032225 4 28 0.0 0.0 0.00 0.00 0.00 87 1025.1
20260502031227 4 28 0.0 0.0 0.00 0.00 0.00 87 1025.1
20260502030439 4 28 0.0 0.0 0.00 0.00 0.00 87 1025.1
20260502025226 5 28 0.0 0.0 0.00 0.00 0.00 87 1025.1
20260502024227 5 28 0.0 0.0 0.00 0.00 0.00 86 1025.1
20260502023224 5 28 0.0 0.0 0.00 0.00 0.00 86 1025.1
20260502022227 5 28 0.0 0.0 0.00 0.00 0.00 86 1025.1